Location: Claflin County Park
(44.8478°N, 87.5507°W)
Time: 02:31:15
(UTC+00:00)

USA 234 - Pass Details

Date: 14 March 2026
Orbit: 1102 x 1106 km, 123.0° (Epoch: 4 January)

Event Time Altitude Azimuth Distance (km) Brightness Sun altitude
Exits shadow 04:30:53 26° 295° (WNW) 2,018 4.9 -43.4°
Drops below altitude 10° 04:33:34 10° 304° (NW) 2,968 6.0 -43.7°
Sets 04:36:06 0° 308° (NW) 3,929 6.9 -43.9°
